GW7468 Weather Reports


Display with metric or nautical units.
time (UTC)temp
F
wind
direction
speed
MPH
gust
MPH
rain 1hr
in
rain 24hr
in
rain mn
in
humidity
%
barometer
mb
20260906203341 78 124 1.0 1.0 0.00 0.00 0.00 73 1017.7
20260906202838 79 98 3.0 6.0 0.00 0.00 0.00 73 1017.8
20260906202338 78 127 2.0 3.0 0.00 0.00 0.00 74 1018.0
20260906201837 78 183 4.0 4.0 0.00 0.00 0.00 74 1018.1
20260906201332 78 195 3.0 4.0 0.00 0.00 0.00 75 1018.3
20260906200828 78 114 3.0 4.0 0.00 0.00 0.00 75 1018.2
20260906200324 77 133 5.0 6.0 0.00 0.00 0.00 76 1018.3
20260906195818 77 148 3.0 3.0 0.00 0.00 0.00 77 1018.2
20260906195315 77 156 5.0 7.0 0.00 0.00 0.00 77 1018.3
20260906194811 77 170 4.0 4.0 0.00 0.00 0.00 78 1018.2
20260906194307 76 182 4.0 4.0 0.00 0.00 0.00 81 1018.3
20260906193806 76 188 3.0 3.0 0.00 0.00 0.00 79 1018.3
20260906193301 76 157 3.0 3.0 0.00 0.00 0.00 78 1018.4
20260906192758 76 101 2.0 2.0 0.00 0.00 0.00 79 1018.4
20260906192258 75 92 1.0 1.0 0.00 0.00 0.00 80 1018.4
20260906191756 75 94 1.0 1.0 0.00 0.00 0.00 80 1018.5
20260906191251 75 118 1.0 1.0 0.00 0.00 0.00 81 1018.6
20260906190746 74 103 1.0 1.0 0.00 0.00 0.00 81 1018.7
20260906190246 74 32 3.0 3.0 0.00 0.00 0.00 83 1019.1
20260906185745 73 27 3.0 3.0 0.00 0.00 0.00 83 1018.9
20260906185244 73 94 2.0 2.0 0.00 0.00 0.00 85 1019.3
20260906184739 72 13 4.0 4.0 0.00 0.00 0.00 85 1019.3
20260906184234 71 32 3.0 3.0 0.00 0.00 0.00 87 1019.3
20260906183730 71 88 2.0 2.0 0.00 0.00 0.00 87 1019.2
20260906183226 71 63 2.0 2.0 0.00 0.00 0.00 87 1019.4
20260906182726 72 19 2.0 3.0 0.00 0.00 0.00 86 1019.3
20260906182222 72 113 1.0 1.0 0.00 0.00 0.00 86 1019.4
20260906181717 71 122 1.0 1.0 0.00 0.00 0.00 88 1019.3
20260906181214 70 109 0.0 0.0 0.00 0.00 0.00 89 1019.3
20260906180713 70 76 1.0 1.0 0.00 0.00 0.00 89 1019.5
20260906180208 70 95 1.0 2.0 0.00 0.00 0.00 89 1019.5
20260906175706 70 118 1.0 2.0 0.00 0.00 0.00 90 1019.6
20260906175202 70 112 1.0 1.0 0.00 0.00 0.00 89 1019.5
20260906174700 69 123 2.0 3.0 0.00 0.00 0.00 90 1019.9
20260906174154 69 113 0.0 1.0 0.00 0.00 0.00 90 1019.8
20260906173650 69 99 1.0 2.0 0.00 0.00 0.00 90 1019.9
20260906173145 69 97 2.0 2.0 0.00 0.00 0.00 90 1019.9
20260906172645 69 126 0.0 0.0 0.00 0.00 0.00 91 1019.9
20260906172141 69 113 2.0 2.0 0.00 0.00 0.00 91 1020.1
20260906171640 69 139 0.0 0.0 0.00 0.00 0.00 92 1020.0
20260906171136 69 156 3.0 3.0 0.00 0.00 0.00 93 1020.4
20260906170632 68 153 3.0 3.0 0.00 0.00 0.00 92 1020.2
20260906170131 68 185 3.0 3.0 0.00 0.00 0.00 93 1020.2
20260906165627 68 147 3.0 3.0 0.00 0.00 0.00 92 1020.0
20260906165123 69 128 3.0 3.0 0.00 0.00 0.00 92 1020.2
20260906164621 68 134 0.0 0.0 0.00 0.00 0.00 91 1020.0
20260906164117 68 148 0.0 1.0 0.00 0.00 0.00 93 1020.1
20260906163613 68 144 1.0 1.0 0.00 0.00 0.00 93 1020.2
20260906163108 67 174 4.0 4.0 0.00 0.00 0.00 94 1020.0
20260906162605 67 146 4.0 4.0 0.00 0.00 0.00 94 1020.2
20260906162100 67 183 2.0 3.0 0.00 0.00 0.00 94 1020.0
20260906161555 67 160 1.0 1.0 0.00 0.00 0.00 94 1020.1
20260906161054 67 162 3.0 3.0 0.00 0.00 0.00 95 1020.1
20260906160553 67 135 2.0 2.0 0.00 0.00 0.00 95 1020.1
20260906160052 67 127 1.0 2.0 0.00 0.00 0.00 95 1020.1
20260906155549 66 127 2.0 2.0 0.00 0.00 0.00 95 1020.0
20260906155046 66 141 2.0 3.0 0.00 0.00 0.00 96 1019.9
20260906154541 66 129 4.0 4.0 0.00 0.00 0.00 96 1019.9
20260906154039 66 166 2.0 3.0 0.00 0.00 0.00 96 1020.0
20260906153538 66 179 5.0 7.0 0.00 0.00 0.00 96 1020.0
20260906153034 66 127 1.0 2.0 0.00 0.00 0.00 96 1020.0
20260906152533 66 131 2.0 3.0 0.00 0.00 0.00 97 1020.0
20260906152032 66 142 4.0 4.0 0.00 0.00 0.00 97 1020.3
20260906151528 66 184 6.0 6.0 0.00 0.00 0.00 97 1020.2
20260906151024 66 123 3.0 4.0 0.00 0.00 0.00 97 1020.2
20260906150519 65 161 4.0 4.0 0.00 0.00 0.00 97 1020.2
20260906150014 65 171 6.0 7.0 0.00 0.00 0.00 98 1020.3
20260906145513 65 160 4.0 4.0 0.00 0.00 0.00 97 1020.4
20260906145008 65 179 5.0 6.0 0.00 0.00 0.00 97 1020.3
20260906144502 65 162 3.0 3.0 0.00 0.00 0.00 97 1020.2
20260906143958 65 162 1.0 1.0 0.00 0.00 0.00 97 1020.3
20260906143453 65 181 6.0 7.0 0.00 0.00 0.00 98 1020.1
20260906142949 65 169 4.0 6.0 0.00 0.00 0.00 98 1020.1
20260906142448 65 186 6.0 7.0 0.00 0.00 0.00 97 1020.3
20260906141944 65 176 5.0 7.0 0.00 0.00 0.00 97 1020.2
20260906141443 65 175 4.0 4.0 0.00 0.00 0.00 98 1020.3
20260906140938 65 164 4.0 4.0 0.00 0.00 0.00 97 1020.3
20260906140433 65 156 5.0 6.0 0.00 0.00 0.00 97 1020.3
20260906135931 65 158 3.0 3.0 0.00 0.00 0.00 97 1020.4
20260906135430 65 179 3.0 3.0 0.00 0.00 0.00 97 1020.4
20260906134926 65 187 6.0 6.0 0.00 0.00 0.00 97 1020.4
20260906134421 64 178 5.0 6.0 0.00 0.00 0.00 97 1020.4
20260906133915 65 184 9.0 9.0 0.00 0.00 0.00 97 1020.7
20260906133411 65 174 6.0 7.0 0.00 0.00 0.00 97 1020.4
20260906132907 65 172 5.0 6.0 0.00 0.00 0.00 97 1020.3
20260906132402 65 168 4.0 4.0 0.00 0.00 0.00 97 1020.6
20260906131857 65 191 6.0 7.0 0.00 0.00 0.00 97 1020.6
20260906131353 65 185 7.0 9.0 0.00 0.00 0.00 96 1020.6
20260906130849 65 182 7.0 8.0 0.00 0.00 0.00 96 1020.4
20260906130348 65 183 6.0 8.0 0.00 0.00 0.00 96 1020.5
20260906125847 65 185 8.0 8.0 0.00 0.00 0.00 96 1020.7
20260906125344 65 189 8.0 9.0 0.00 0.00 0.00 96 1020.4
20260906124839 65 149 4.0 4.0 0.00 0.00 0.00 97 1020.5
20260906124335 65 187 7.0 9.0 0.00 0.00 0.00 96 1020.4
20260906123834 65 175 7.0 7.0 0.00 0.00 0.00 96 1020.2
20260906123329 65 193 6.0 7.0 0.00 0.00 0.00 97 1020.1
20260906122829 65 161 4.0 7.0 0.00 0.00 0.00 97 1020.3
20260906122324 64 171 4.0 6.0 0.00 0.00 0.00 97 1020.2
20260906121821 64 177 5.0 7.0 0.00 0.00 0.00 98 1020.2
20260906121317 64 147 3.0 4.0 0.00 0.00 0.00 99 1020.3
20260906120813 62 122 0.0 0.0 0.00 0.00 0.00 99 1020.2
20260906120308 62 118 0.0 0.0 0.00 0.00 0.00 99 1020.0
20260906115804 62 119 0.0 0.0 0.00 0.00 0.00 99 1020.2
20260906115259 62 104 1.0 1.0 0.00 0.00 0.00 99 1019.9
20260906114759 62 123 0.0 0.0 0.00 0.00 0.00 99 1019.8
20260906114254 61 122 0.0 0.0 0.00 0.00 0.00 99 1019.7
20260906113749 61 107 0.0 1.0 0.00 0.00 0.00 99 1019.7
20260906113249 62 99 0.0 0.0 0.00 0.00 0.00 99 1019.7
20260906112748 61 111 0.0 0.0 0.00 0.00 0.00 99 1019.6
20260906112245 61 107 1.0 1.0 0.00 0.00 0.00 99 1019.6
20260906111745 61 101 1.0 1.0 0.00 0.00 0.00 99 1019.5
20260906111244 61 32 1.0 2.0 0.00 0.00 0.00 99 1019.6
20260906110739 60 96 1.0 1.0 0.00 0.00 0.00 99 1019.7
20260906110235 60 113 1.0 1.0 0.00 0.00 0.00 99 1019.5
20260906105734 60 64 1.0 1.0 0.00 0.00 0.00 99 1019.5
20260906105230 60 124 0.0 0.0 0.00 0.00 0.00 99 1019.4
20260906104725 59 93 1.0 1.0 0.00 0.00 0.00 99 1019.4
20260906104224 59 90 1.0 1.0 0.00 0.00 0.00 99 1019.4
20260906103721 60 94 1.0 1.0 0.00 0.00 0.00 99 1019.3
20260906103216 60 81 1.0 1.0 0.00 0.00 0.00 99 1019.4
20260906102712 60 88 1.0 1.0 0.00 0.00 0.00 99 1019.4
20260906102211 60 72 1.0 1.0 0.00 0.00 0.00 99 1019.6
20260906101706 60 76 1.0 1.0 0.00 0.00 0.00 98 1019.4
20260906101201 60 330 1.0 2.0 0.00 0.00 0.00 98 1019.5
20260906100656 60 81 2.0 2.0 0.00 0.00 0.00 98 1019.4
20260906100156 60 89 1.0 1.0 0.00 0.00 0.00 98 1019.3
20260906095651 60 60 2.0 2.0 0.00 0.00 0.00 98 1019.3
20260906095147 60 57 1.0 1.0 0.00 0.00 0.00 98 1019.3
20260906094645 60 103 0.0 0.0 0.00 0.00 0.00 98 1019.4
20260906094141 60 105 0.0 0.0 0.00 0.00 0.00 98 1019.3
20260906093638 60 103 0.0 0.0 0.00 0.00 0.00 98 1019.2
20260906093137 60 111 0.0 0.0 0.00 0.00 0.00 98 1019.3
20260906092633 60 93 0.0 0.0 0.00 0.00 0.00 98 1019.1
20260906092133 60 104 0.0 0.0 0.00 0.00 0.00 98 1019.2
20260906091629 60 99 0.0 0.0 0.00 0.00 0.00 98 1019.3
20260906091125 60 103 1.0 1.0 0.00 0.00 0.00 98 1019.4
20260906090620 60 101 1.0 1.0 0.00 0.00 0.00 98 1019.4
20260906090120 61 111 0.0 0.0 0.00 0.00 0.00 98 1019.4
20260906085619 61 103 0.0 0.0 0.00 0.00 0.00 98 1019.4
20260906085114 60 105 1.0 1.0 0.00 0.00 0.00 98 1019.2
20260906084609 61 110 0.0 1.0 0.00 0.00 0.00 98 1019.3
20260906084107 61 124 0.0 0.0 0.00 0.00 0.00 98 1019.1
20260906083603 61 119 0.0 0.0 0.00 0.00 0.00 98 1019.1
20260906083103 61 115 0.0 1.0 0.00 0.00 0.00 98 1019.1
20260906082558 61 89 1.0 1.0 0.00 0.00 0.00 98 1019.0
20260906082054 61 119 0.0 0.0 0.00 0.00 0.00 98 1019.1
20260906081550 61 102 1.0 1.0 0.00 0.00 0.00 98 1019.3
20260906081045 62 93 1.0 1.0 0.00 0.00 0.00 98 1019.2
20260906080542 62 135 0.0 0.0 0.00 0.00 0.00 98 1019.3
20260906080038 61 130 0.0 1.0 0.00 0.00 0.00 98 1019.2
20260906075537 61 81 1.0 1.0 0.00 0.00 0.00 97 1019.3
20260906075032 61 109 0.0 1.0 0.00 0.00 0.00 97 1019.2
20260906074527 62 91 1.0 1.0 0.00 0.00 0.00 97 1019.3
20260906074025 62 75 0.0 0.0 0.00 0.00 0.00 97 1019.2
20260906073520 62 94 0.0 0.0 0.00 0.00 0.00 97 1019.3
20260906073016 63 129 0.0 0.0 0.00 0.00 0.00 97 1019.4
20260906072511 64 143 0.0 0.0 0.00 0.00 0.00 97 1019.4
20260906072008 64 135 0.0 0.0 0.00 0.00 0.00 96 1019.5
20260906071503 64 135 0.0 0.0 0.00 0.00 0.00 96 1019.4
20260906070958 64 143 0.0 0.0 0.00 0.00 0.00 96 1019.3
20260906070454 64 139 0.0 0.0 0.00 0.00 0.00 96 1019.3
20260906065950 64 145 1.0 1.0 0.00 0.00 0.00 95 1019.3
20260906065449 64 166 1.0 2.0 0.00 0.00 0.00 96 1019.6
20260906064945 64 136 0.0 0.0 0.00 0.00 0.00 96 1019.5
20260906064442 64 152 1.0 2.0 0.00 0.00 0.00 97 1019.7
20260906063942 63 126 0.0 0.0 0.00 0.00 0.00 97 1019.7
20260906063437 63 114 0.0 0.0 0.00 0.00 0.00 97 1019.8
20260906062937 62 118 0.0 0.0 0.00 0.00 0.00 97 1019.8
20260906062433 63 93 1.0 1.0 0.00 0.00 0.00 97 1020.1
20260906061928 63 89 1.0 1.0 0.00 0.00 0.00 97 1019.8
20260906061424 63 120 0.0 0.0 0.00 0.00 0.00 96 1019.7
20260906060924 63 107 0.0 1.0 0.00 0.00 0.00 96 1020.0
20260906060421 64 99 1.0 1.0 0.00 0.00 0.00 96 1020.1
20260906055917 64 88 1.0 2.0 0.00 0.00 0.00 96 1020.0
20260906055413 64 171 1.0 2.0 0.00 0.00 0.00 97 1020.0
20260906054908 63 189 1.0 1.0 0.00 0.00 0.00 98 1019.9
20260906054402 62 121 0.0 1.0 0.00 0.00 0.00 97 1020.0
20260906053859 62 120 0.0 0.0 0.00 0.00 0.00 97 1020.0
20260906053354 62 139 0.0 0.0 0.00 0.00 0.00 97 1020.0
20260906052850 62 113 0.0 0.0 0.00 0.00 0.00 97 1020.2
20260906052346 63 107 0.0 1.0 0.00 0.00 0.00 96 1020.2
20260906051843 64 150 1.0 2.0 0.00 0.00 0.00 98 1020.3
20260906051342 61 188 0.0 1.0 0.00 0.00 0.00 98 1020.6
20260906050838 61 103 0.0 0.0 0.00 0.00 0.00 97 1020.3
20260906050333 61 91 0.0 0.0 0.00 0.00 0.00 97 1020.3
20260906045832 62 123 0.0 0.0 0.00 0.00 0.00 97 1020.2
20260906045326 62 104 0.0 1.0 0.00 0.00 0.00 97 1020.2
20260906044822 61 126 0.0 0.0 0.00 0.00 0.00 97 1020.3
20260906044317 62 114 0.0 1.0 0.00 0.00 0.00 97 1020.3
20260906043813 62 117 0.0 0.0 0.00 0.00 0.00 97 1020.2
20260906043309 62 104 1.0 1.0 0.00 0.00 0.00 97 1020.4
20260906042808 62 133 0.0 0.0 0.00 0.00 0.00 97 1020.1
20260906042308 62 120 0.0 0.0 0.00 0.00 0.00 97 1020.2
20260906041803 62 111 0.0 1.0 0.00 0.00 0.00 97 1020.2
20260906041258 62 12 2.0 2.0 0.00 0.00 0.00 96 1020.0
20260906040753 62 4 2.0 2.0 0.00 0.00 0.00 97 1020.1
20260906040249 62 85 1.0 1.0 0.00 0.00 0.00 96 1020.0
20260906035744 62 108 1.0 1.0 0.00 0.00 0.00 96 1019.9
20260906035240 62 32 1.0 2.0 0.00 0.00 0.00 96 1019.8
20260906034739 62 23 2.0 2.0 0.00 0.00 0.00 96 1019.9
20260906034234 62 8 2.0 2.0 0.00 0.00 0.00 96 1020.1
20260906033730 62 9 2.0 2.0 0.00 0.00 0.00 96 1019.9
20260906033230 62 27 1.0 2.0 0.00 0.00 0.00 96 1019.9
20260906032727 63 354 2.0 2.0 0.00 0.00 0.00 96 1019.9
20260906032226 62 2 2.0 2.0 0.00 0.00 0.00 96 1020.1
20260906031722 63 68 1.0 2.0 0.00 0.00 0.00 95 1020.1
20260906031217 63 90 1.0 2.0 0.00 0.00 0.00 95 1020.0
20260906030717 63 85 1.0 2.0 0.00 0.00 0.00 95 1020.2
20260906030212 63 91 1.0 2.0 0.00 0.00 0.00 95 1020.3
20260906025711 63 110 0.0 0.0 0.00 0.00 0.00 95 1019.8
20260906025206 64 115 0.0 0.0 0.00 0.00 0.00 95 1019.8
20260906024705 64 99 0.0 0.0 0.00 0.00 0.00 95 1019.9
20260906024204 64 115 0.0 0.0 0.00 0.00 0.00 94 1019.9
20260906023701 64 114 0.0 0.0 0.00 0.00 0.00 94 1019.8
20260906023201 64 116 0.0 0.0 0.00 0.00 0.00 94 1019.7
20260906022655 65 112 0.0 0.0 0.00 0.00 0.00 94 1019.6
20260906022151 65 120 0.0 0.0 0.00 0.00 0.00 93 1019.7
20260906021647 65 120 0.0 0.0 0.00 0.00 0.00 92 1019.7
20260906021146 66 123 0.0 1.0 0.00 0.00 0.00 91 1019.5
20260906020641 67 138 0.0 0.0 0.00 0.00 0.00 90 1019.4
20260906020136 67 145 0.0 0.0 0.00 0.00 0.00 89 1019.4
20260906015636 67 147 1.0 2.0 0.00 0.00 0.00 88 1019.1
20260906015134 67 140 0.0 0.0 0.00 0.00 0.00 88 1019.1
20260906014635 68 137 0.0 0.0 0.00 0.00 0.00 87 1019.0
20260906014131 68 128 1.0 1.0 0.00 0.00 0.00 86 1019.0
20260906013626 68 143 0.0 0.0 0.00 0.00 0.00 86 1018.9
20260906013122 67 154 1.0 1.0 0.00 0.00 0.00 86 1019.0
20260906012616 67 132 0.0 0.0 0.00 0.00 0.00 88 1019.0
20260906012116 68 131 0.0 0.0 0.00 0.00 0.00 87 1019.0
20260906011612 68 134 0.0 0.0 0.00 0.00 0.00 85 1019.0
20260906011107 69 140 0.0 0.0 0.00 0.00 0.00 86 1018.9
20260906010602 69 167 1.0 1.0 0.00 0.00 0.00 84 1018.6
20260906010058 69 171 2.0 2.0 0.00 0.00 0.00 83 1018.7
20260906005557 70 147 4.0 6.0 0.00 0.00 0.00 83 1018.7
20260906005057 70 186 6.0 7.0 0.00 0.00 0.00 84 1018.9
20260906004556 70 185 4.0 4.0 0.00 0.00 0.00 82 1018.5
20260906004051 70 165 4.0 6.0 0.00 0.00 0.00 81 1018.7
20260906003546 70 181 4.0 4.0 0.00 0.00 0.00 81 1018.5
20260906003043 71 152 3.0 3.0 0.00 0.00 0.00 80 1018.6
20260906002543 71 158 5.0 6.0 0.00 0.00 0.00 82 1018.6
20260906002037 71 158 5.0 7.0 0.00 0.00 0.00 82 1018.5
20260906001533 71 162 6.0 7.0 0.00 0.00 0.00 82 1018.3
20260906001027 71 135 4.0 6.0 0.00 0.00 0.00 79 1018.4
20260906000523 71 183 3.0 4.0 0.00 0.00 0.00 78 1018.3
20260906000018 71 168 4.0 4.0 0.00 0.00 0.00 81 1018.3
20260905235517 71 153 4.0 6.0 0.00 0.00 0.00 80 1018.1
20260905235013 71 169 3.0 3.0 0.00 0.00 0.00 78 1018.1
20260905234509 72 182 4.0 4.0 0.00 0.00 0.00 79 1018.1
20260905234009 72 177 2.0 3.0 0.00 0.00 0.00 78 1018.0
20260905233504 72 132 1.0 2.0 0.00 0.00 0.00 77 1017.8
20260905233003 72 155 5.0 7.0 0.00 0.00 0.00 77 1017.8
20260905232459 72 168 4.0 4.0 0.00 0.00 0.00 78 1017.8
20260905231954 72 145 5.0 6.0 0.00 0.00 0.00 77 1017.9
20260905231450 72 180 4.0 6.0 0.00 0.00 0.00 76 1017.9
20260905230946 72 144 3.0 3.0 0.00 0.00 0.00 77 1017.9
20260905230444 72 198 5.0 6.0 0.00 0.00 0.00 77 1018.0
20260905225943 72 131 5.0 6.0 0.00 0.00 0.00 77 1018.2
20260905225438 72 179 4.0 4.0 0.00 0.00 0.00 79 1018.3
20260905224933 72 171 5.0 6.0 0.00 0.00 0.00 77 1018.0
20260905224429 72 162 4.0 4.0 0.00 0.00 0.00 78 1018.0
20260905223928 72 132 5.0 7.0 0.00 0.00 0.00 77 1018.1
20260905223426 72 176 3.0 3.0 0.00 0.00 0.00 77 1018.0
20260905222926 72 109 6.0 8.0 0.00 0.00 0.00 76 1017.9
20260905222426 72 176 3.0 3.0 0.00 0.00 0.00 77 1018.2
20260905221922 72 172 5.0 6.0 0.00 0.00 0.00 76 1018.2
20260905221418 72 122 3.0 3.0 0.00 0.00 0.00 75 1018.1
20260905220914 72 187 4.0 6.0 0.00 0.00 0.00 76 1018.1
20260905220410 72 142 4.0 4.0 0.00 0.00 0.00 76 1018.1
20260905215909 72 126 3.0 3.0 0.00 0.00 0.00 76 1018.2
20260905215405 71 122 2.0 2.0 0.00 0.00 0.00 77 1018.3
20260905214901 72 193 5.0 6.0 0.00 0.00 0.00 77 1018.3
20260905214356 72 124 3.0 3.0 0.00 0.00 0.00 75 1018.3
20260905213851 72 184 3.0 3.0 0.00 0.00 0.00 76 1018.4
20260905213347 72 131 5.0 6.0 0.00 0.00 0.00 76 1018.7
20260905212847 71 163 4.0 6.0 0.00 0.00 0.00 77 1018.6
20260905212342 72 129 3.0 3.0 0.00 0.00 0.00 78 1018.7
20260905211841 71 112 5.0 7.0 0.00 0.00 0.00 79 1019.0
20260905211337 72 120 4.0 4.0 0.00 0.00 0.00 77 1019.1
20260905210834 71 200 5.0 6.0 0.00 0.00 0.00 77 1019.0
20260905210333 72 176 6.0 7.0 0.00 0.00 0.00 79 1019.1
20260905205832 71 189 9.0 9.0 0.00 0.00 0.00 79 1019.1
20260905205327 72 183 7.0 9.0 0.00 0.00 0.00 78 1019.1
20260905204826 72 174 10.0 10.0 0.00 0.00 0.00 79 1019.2
20260905204323 72 187 5.0 6.0 0.00 0.00 0.00 79 1019.2
20260905203821 71 109 8.0 10.0 0.00 0.00 0.00 76 1019.3